#timestamp,LO_Frequency,Hit 
1503680415.2,286046989.6,N
1503680435.0,286046992.8,N
1503680435.9,286046992.8,N
1503680455.8,286046995.3,N
1503680475.6,286046998.8,N
1503680495.4,286047006.1,N
1503680515.2,286047005.9,N
1503680535.1,286047000.7,N
1503680536.0,286047000.7,N
1503680555.8,286047000.6,N
1503680575.6,286047007.6,N
1503680595.5,286047009.8,N
1503680615.3,286047006.5,N
1503680635.1,286047006.2,N
1503680655.9,286047002.6,N
1503680675.7,286047011.9,N
1503680695.5,286047011.2,N
1503680715.4,286047015.0,N
1503680735.2,286047016.8,N
1503680755.0,286047014.1,N
1503680755.9,286047014.1,N
1503680775.8,286047014.5,N
1503680795.6,286047015.5,N
1503680815.4,286047013.4,N
1503680835.3,286047012.9,N
1503680855.1,286047021.0,N
1503680856.0,286047021.0,N
1503680875.8,286047025.7,N
1503680895.7,286047028.2,N
1503680915.5,286047014.8,N
1503680935.3,286047014.9,N
1503680955.1,286047013.8,N
1503680975.9,286047014.2,N
1503680995.7,286047015.5,N
1503681015.5,286047019.3,N
1503681035.4,286047016.4,N
1503681055.2,286047029.4,P
1503681075.0,286047011.9,N
1503681075.9,286047011.9,N
1503681095.8,286047001.9,N
1503681115.6,286047002.4,N
1503681135.4,286047006.5,N
1503681155.3,286047009.6,N
1503681175.1,286047014.0,N
1503681195.8,286047014.1,N
1503681215.7,286047018.2,N
1503681235.5,286047023.6,P
1503681255.3,286047009.2,N
1503681275.2,286047008.8,N
1503681295.9,286047005.7,N
1503681315.7,286047000.6,N
1503681335.6,286046995.2,N
1503681355.4,286046999.3,N
1503681375.2,286047000.8,N
1503681395.1,286047005.2,N
1503681396.0,286047005.2,N
1503681415.8,286047003.5,N
1503681435.6,286047008.1,N
1503681455.4,286047017.0,N
1503681475.3,286047016.1,N
1503681495.1,286047027.3,P
1503681515.9,286047018.7,N
1503681535.7,286047022.1,N
1503681555.5,286047030.0,P
1503681575.4,286047005.7,N
1503681595.2,286046996.6,N
1503681615.0,286047000.2,N
1503681615.9,286047000.2,N
1503681635.8,286047013.8,N
1503681655.6,286047010.2,N
1503681675.4,286047015.2,N
1503681695.2,286047016.9,N
1503681715.1,286047025.2,N
1503681716.0,286047025.2,N
1503681735.8,286047016.0,N
1503681755.6,286047006.7,N
1503681775.5,286047004.6,N
1503681795.3,286047006.9,N
1503681815.1,286047006.3,N
1503681835.9,286047013.7,N
1503681855.7,286047014.2,N
1503681875.5,286047016.6,N
1503681895.4,286047013.4,N
1503681915.2,286047009.1,N
1503681935.0,286047010.7,N
1503681935.9,286047010.7,N
1503681955.8,286047018.0,N
1503681975.6,286047020.8,N
1503681995.4,286047034.0,P
1503682015.3,286047017.9,N
1503682035.1,286047022.5,N
1503682036.0,286047022.5,N
1503682055.8,286047023.5,P
1503682075.7,286046998.4,N
1503682095.5,286047005.7,N
1503682115.3,286047001.4,N
1503682135.2,286046998.2,N
1503682155.1,286046995.3,N
1503682175.8,286046999.4,N
1503682195.7,286047001.7,N
1503682215.5,286047010.3,N
1503682235.3,286047008.9,N
1503682255.3,286046997.1,N
1503682275.1,286046997.6,N
1503682295.9,286046997.3,N
1503682315.7,286046998.8,N
1503682335.5,286047001.4,N
1503682355.4,286047011.8,N
1503682375.2,286047014.3,N
1503682395.0,286047015.1,N
1503682395.9,286047015.1,N
1503682415.8,286047011.7,N
1503682435.6,286047011.9,N
1503682455.4,286047012.7,N
1503682475.3,286047014.4,N
1503682495.1,286047014.4,N
1503682496.0,286047014.4,N
1503682515.8,286047015.5,N
1503682535.7,286047017.5,N
1503682555.5,286047016.4,N
1503682575.3,286047019.0,N
1503682595.1,286047014.5,N
1503682615.9,286047015.6,N
1503682635.7,286047010.5,N
1503682655.5,286047013.6,N
1503682675.4,286047011.8,N
1503682695.2,286047009.0,N
1503682715.0,286047007.8,N
1503682715.9,286047007.8,N
1503682735.8,286047010.2,N
1503682755.6,286047004.5,N
1503682775.4,286047009.0,N
1503682795.3,286047012.3,N
1503682815.1,286047015.7,N
1503682835.8,286047006.9,P
1503682855.7,286047005.7,N
1503682875.5,286047003.2,N
1503682895.3,286047005.3,N
1503682915.2,286047005.1,N
1503682935.9,286047012.8,P
1503682955.7,286047008.0,N
1503682975.6,286047003.8,N
1503682995.4,286046997.0,N
1503683015.2,286046992.5,N
1503683035.1,286046986.8,N
1503683036.0,286046986.8,N
1503683055.8,286046982.2,N
1503683075.6,286046980.7,N
1503683095.4,286046984.0,N
1503683115.3,286046997.4,N
1503683135.1,286046996.0,N
1503683155.8,286046992.4,N
1503683175.7,286046998.2,N
1503683195.5,286046997.5,N
1503683215.3,286046994.8,N
1503683235.2,286046983.7,N
1503683255.9,286046984.6,N
1503683275.7,286046991.5,N
1503683295.6,286046996.3,N
1503683315.4,286046995.2,N
1503683335.2,286046995.0,N
1503683355.0,286046990.4,N
1503683356.0,286046990.4,N
1503683375.8,286046986.1,N
1503683395.6,286046984.2,N
1503683415.4,286046986.8,N
1503683435.3,286046982.1,N
1503683455.1,286046981.2,N
1503683475.8,286046977.8,N
1503683495.7,286046978.3,N
1503683515.5,286046975.7,P
1503683535.3,286046987.0,N
1503683555.2,286046989.6,N
1503683575.9,286046994.1,N
1503683595.7,286046993.5,N
1503683615.6,286047001.1,N
1503683635.4,286047007.0,N
1503683655.2,286047006.9,N
1503683675.1,286046996.2,N
1503683676.0,286046996.2,N
1503683695.8,286046992.9,N
1503683715.6,286046994.8,N
1503683735.5,286046996.9,N
1503683755.3,286047000.0,N
1503683775.1,286047000.4,N
1503683795.8,286047003.1,N
1503683815.7,286047005.3,N
1503683835.5,286047003.4,N
1503683855.3,286046999.7,N
1503683875.2,286046998.4,N
1503683895.9,286046993.4,N
1503683915.7,286046989.4,N
1503683935.6,286046989.3,N
1503683955.4,286046992.8,N
1503683975.2,286046991.4,N
1503683995.1,286046985.9,N
1503683996.0,286046985.9,N
